sat.trackr.live / text

‹ back to catalog

KUIPER-00196

NORAD 67144 · 2025-301M

PAYLOAD ACTIVE UNKNOWN

§ Identity

Operator
Country
US
Launch date
2025-12-16
Launch site
AFETR
Launch vehicle
Mass (kg)
RCS (m²)

External: N2YO · Heavens-Above · Gunter

§ Orbital elements

Epoch: 2026-09-20T16:32:24.338112Z

Period
97.30 min
Inclination
51.8985°
Eccentricity
0.0000655
Mean motion
14.79936046 rev/d
Perigee alt
629.1 km
Apogee alt
630.0 km
Semi-major
7,007.7 km
B*
2.5827e-4
RAAN
248.3152°
Arg perigee
68.5004°
Mean anomaly
291.6029°
Rev number
4,309

§ Raw data

KUIPER-001961 67144U 25301M   26263.68917058  .00001748  00000+0  25827-3 0  99922 67144  51.8985 248.3152 0000655  68.5004 291.6029 14.79936046 43098

JSON: /api/v1/satellites/67144 · /tle

For live sub-satellite position, see the globe view (requires WebGL).

§ Visibility from observer

Set your observer location to see the next 7 days of passes ≥ 10°. The values pass through the URL so the page stays shareable.

No JS? Fill the form by hand. The geolocation button needs JavaScript.